Flag for Brazil Weather past 2 weeks in Cuiabá, Mato Grosso, Brazil

Now
72 °F

Partly cloudy.


Feels Like: 67 °F
Forecast: 69 / 88 °F
Wind: No wind

Location: Cuiaba Aeroporto


UV Index: 7 (High)

Visibility: N/A


Pressure: 29.95 "Hg

Humidity: 94%

Dew point: 70 °F

Location of CuiabáLocation

Historic Weather in Cuiabá

°F

Cuiabá temperature yesterday

Maximum temperature yesterday: 77 °F (at 2:00 PM)
Minimum temperature yesterday: 68 °F (at 1:00 AM)
Average temperature yesterday: 72 °F

Past Weeks' High & Low Weather Summary

 TemperatureHumidityPressure
High93 °F (Apr 3, 2:00 PM)100% (Apr 3, 7:00 PM)30.04 "Hg (Apr 3, 7:00 PM)
Low39 °F (Apr 3, 7:00 PM)41% (Apr 6, 4:00 PM)29.77 "Hg (Apr 7, 5:00 PM)
Average79 °F78%29.91 "Hg
* Reported Apr 1 3:00 AM — Apr 16 3:00 AM, Cuiabá, Weather by CustomWeather, © 2014

Note: Actual official high and low records may vary slightly from our data, if they occured in-between our weather recording intervals... More about our weather records

Advertising

Historic Weather Conditions — Data for Previous 24 hours

 ConditionsComfort  
Time TempWeatherWind HumidityBarometerVisibility
3:00 AM
Apr 16
72 °FPartly cloudy.No wind94%29.92 "HgN/A
2:00 AM72 °FPartly cloudy.No wind94%29.92 "HgN/A
1:00 AM72 °FPartly cloudy.3 mph94%29.95 "HgN/A
12:00 AM73 °FPartly cloudy.No wind83%29.95 "HgN/A
11:00 PM
Apr 15
73 °FPartly cloudy.No wind83%29.98 "HgN/A
10:00 PM73 °FPartly cloudy.2 mph89%29.98 "HgN/A
9:00 PM75 °FPartly cloudy.2 mph78%29.98 "HgN/A
7:00 PM73 °FPassing clouds.2 mph89%29.92 "HgN/A
6:00 PM75 °FPassing clouds.2 mph83%29.92 "HgN/A
5:00 PM75 °FPartly sunny.2 mph83%29.89 "HgN/A
4:00 PM77 °FPartly sunny.5 mph74%29.89 "HgN/A
3:00 PM77 °FPartly sunny.6 mph74%29.89 "HgN/A
2:00 PM77 °FScattered clouds.3 mph69%29.92 "HgN/A
1:00 PM75 °FBroken clouds.1 mph74%29.98 "HgN/A
12:00 PM75 °FPartly sunny.6 mph69%30.01 "HgN/A
11:00 AM73 °FMild.6 mph69%30.01 "HgN/A
10:00 AM72 °FBroken clouds.6 mph73%30.04 "HgN/A
9:00 AM70 °FPartly sunny.7 mph78%30.01 "HgN/A
8:00 AM70 °FPartly sunny.8 mph78%30.01 "HgN/A
7:00 AM68 °FPartly sunny.5 mph83%29.98 "HgN/A
6:00 AM68 °FPartly sunny.13 mph88%29.95 "HgN/A
5:00 AM68 °FPassing clouds.7 mph88%29.95 "HgN/A
4:00 AM68 °FPassing clouds.7 mph83%29.95 "HgN/A
Weather by CustomWeather, © 2014

See weather overview